date,batt_volt,AirTemp_C,Solar_kW,RH,Manual_BP,StationID,WS_ms,PTemp,WS_15min_max,Prog_Sig,Solar_Raw,Bar_mbar,Solar_MJ,Max_WS_2min,Pressure_Raw,Rain_mm,WD_15min_ave,Max_AirTemp_1min,WindDir,WS_15min_med,WS_15min_ave,Elevation_Correction
2019-06-01T00:10:46Z,13.0407,7.17041,0.0004820951,93.9003,0,1156,1.47,11.03847,2.548,43690,0.03374666,1006.965,2.410476e-06,2.313,1005.164,0,307.041966013,7.272,315.566,1.2838,1.35088332679,1.80078
2019-06-01T00:25:47Z,13.05727,6.865467,0.0,94.20535,0,1156,1.9796,10.69733,3.3124,43690,0.0,1006.965,0.0,3.312,1005.164,0,305.542382177,7.001001,310.634,1.7836,1.82828333036,1.80078
2019-06-01T00:40:47Z,13.06279,6.696034,0.0,94.44256,0,1156,0.9604,10.35844,2.7048,43690,0.0,1006.965,0.0,1.842,1005.164,0,318.047881819,6.764001,329.8336,1.7836,1.74264999702,1.80078
2019-06-01T00:55:48Z,13.0689,6.495319,0.0,94.54951,0,1156,1.2544,10.08733,2.842,43690,0.0,1006.965,0.0,1.882,1005.164,0,315.258889911,6.496,283.8715,1.372,1.4130666619,1.80078
2019-06-01T01:10:49Z,13.07598,5.991711,0.0,94.49144,0,1156,0.8231999,9.682926,2.2148,43690,0.0,1008.32,0.0,1.588,1006.519,0,323.54257003,6.161,323.6535,0.9408,0.970783323214,1.80078
2019-06-01T01:25:50Z,13.08304,5.998036,0.0,94.70782,0,1156,1.8228,9.258182,2.1756,43690,0.0,1008.32,0.0,2.156,1006.519,0,324.350740714,6.065,332.2176,0.97019995,1.01674999524,1.80078
2019-06-01T01:40:51Z,13.0948,5.762638,0.0,94.8473,0,1156,2.1364,8.878628,3.136,43690,0.0,1008.32,0.0,1.882,1006.519,0,335.13869105,5.864,339.572,1.3328,1.34738332619,1.80078
2019-06-01T01:55:51Z,13.10034,5.288136,0.0,94.91526,0,1156,2.5284,8.589443,2.548,43690,0.0,1008.32,0.0,2.097,1006.519,0,306.295739229,5.356,283.4224,1.4308,1.32486666131,1.80078
2019-06-01T02:10:51Z,13.10586,5.288136,0.0,95.25423,0,1156,0.9995999,8.435818,2.7832,43690,0.0,1008.852,0.0,2.626,1007.051,0,295.773326721,5.39,294.5658,2.1952,2.13196666667,1.80078
2019-06-01T02:25:50Z,13.10586,5.220341,0.0,95.59322,0,1156,0.9211999,8.413227,2.5872,43690,0.0,1008.852,0.0,1.039,1007.051,0,311.411074481,5.356,307.1532,1.4308,1.37211665833,1.80078
2019-06-01T02:40:49Z,13.10586,6.169491,0.0,96.0,0,1156,1.274,8.302525,3.4104,43690,0.0,1008.852,0.0,3.41,1007.051,0,311.774018907,6.271,290.9315,1.8522,1.80739999702,1.80078
2019-06-01T02:55:50Z,13.10586,6.203388,0.0,96.0,0,1156,2.5088,8.390629,2.6656,43690,0.0,1008.852,0.0,2.372,1007.051,0,304.241561215,6.237,320.7274,1.96,1.96443333333,1.80078
2019-06-01T03:10:49Z,13.10034,6.101696,0.0,96.06779,0,1156,2.1756,8.435818,2.5088,43690,0.0,1008.608,0.0,2.372,1006.807,0,320.088168638,6.169,333.9648,1.764,1.73331666429,1.80078
2019-06-01T03:25:49Z,13.0893,6.203388,0.0,96.13559,0,1156,2.1168,8.501339,2.45,43690,0.0,1008.608,0.0,2.45,1006.807,0,322.438640586,6.271,320.583,1.9502,1.90761666667,1.80078
2019-06-01T03:40:54Z,13.0893,6.745762,0.0,96.27118,0,1156,3.136,8.612042,3.43,43690,0.0,1008.608,0.0,2.979,1006.807,0,317.405845697,6.78,323.2787,2.2736,2.27452781065,1.80078
2019-06-01T03:55:53Z,13.08378,6.881355,0.0,96.1695,0,1156,0.8035999,8.833446,3.4692,43690,0.0,1008.608,0.0,2.842,1006.807,0,307.278804519,6.983,302.099,2.254,2.2154999994,1.80078
2019-06-01T04:10:52Z,13.0893,6.881355,0.0,96.13559,0,1156,1.4308,8.944149,2.352,43690,0.0,1008.933,0.0,2.078,1007.132,0,312.015570883,7.051,314.8068,1.6268,1.63718333214,1.80078
2019-06-01T04:25:51Z,13.0893,6.881355,0.0,95.9661,0,1156,0.8231999,8.878628,2.5872,43690,0.0,1008.933,0.0,2.078,1007.132,0,314.616307446,7.119001,326.8407,1.813,1.79503333274,1.80078
2019-06-01T04:40:50Z,13.09482,6.983051,0.0,95.9661,0,1156,1.3524,8.700154,2.0384,43690,0.0,1008.933,0.0,1.47,1007.132,0,320.075911045,7.119001,309.5119,1.3328,1.27528332857,1.80078
2019-06-01T04:55:55Z,13.10034,6.474575,0.0,95.69491,0,1156,0.6468,8.566853,2.0972,43690,0.0,1008.933,0.0,1.627,1007.132,0,325.753956837,6.644,354.5427,1.3916,1.39855857751,1.80078
2019-06-01T05:10:54Z,13.10034,7.152542,0.0,95.86441,0,1156,1.4504,8.589443,2.1756,43690,0.0,1008.77,0.0,1.725,1006.97,0,321.013409336,7.22,327.9237,1.5092,1.43464999643,1.80078
2019-06-01T05:25:52Z,13.10034,6.881355,0.0,95.72882,0,1156,1.2544,8.677555,2.254,43690,0.0,1008.77,0.0,1.078,1006.97,0,338.439002838,7.051,331.558,1.0682,1.07006665357,1.80078
2019-06-01T05:40:55Z,13.09482,7.084747,0.0,95.79661,0,1156,1.372,8.677555,2.058,43690,0.0,1008.77,0.0,1.725,1006.97,0,338.495206865,7.22,286.118,1.2544,1.20824141124,1.80078
2019-06-01T05:55:54Z,13.09482,6.576271,0.0,95.79661,0,1156,0.3332,8.566853,1.5092,43690,0.0,1008.77,0.0,0.9410001,1006.97,0,322.982315563,6.576,341.9312,0.7448,0.740483324405,1.80078
2019-06-01T06:10:52Z,13.11138,5.932205,0.0,95.76271,0,1156,0.49,8.302525,1.274,43690,0.0,1009.177,0.0,1.274,1007.376,0,305.934595316,6.169,303.7356,0.6174,0.590449991071,1.80078
2019-06-01T06:25:56Z,13.1169,5.288136,0.0,95.76271,0,1156,2.3716,8.038189,2.4108,43690,0.0,1009.177,0.0,2.195,1007.376,0,71.0838443703,5.39,105.0319,1.372,1.20789348935,1.80078
2019-06-01T06:40:55Z,13.12242,5.830509,0.0,96.27118,0,1156,0.0,7.773854,2.842,43690,0.0,1009.177,0.0,1.019,1007.376,0,113.166749414,5.695,175.1173,2.45,2.02416666429,1.80078
2019-06-01T06:55:58Z,13.12794,5.050846,0.0,96.30509,0,1156,1.4896,7.509526,1.666,43690,0.0,1009.177,0.0,1.666,1007.376,0,99.3075803388,5.051,104.4302,1.3328,1.09272899172,1.80078
2019-06-01T07:10:56Z,13.13346,4.915253,0.0,96.40678,0,1156,0.686,7.290378,1.7248,43690,0.0,1009.421,0.0,1.019,1007.62,0,110.659849201,4.949,85.39254,1.0388,1.09024998988,1.80078
2019-06-01T07:25:54Z,13.14504,4.441166,0.0,96.37394,0,1156,1.0388,7.00571,1.1172,43690,0.0,1009.421,0.0,1.0,1007.62,0,99.0895550271,4.543,92.99898,0.49,0.433766647619,1.80078
2019-06-01T07:40:58Z,13.15354,4.115227,0.0,96.47027,0,1156,1.8228,6.721042,2.6068,43690,0.0,1009.421,0.0,2.587,1007.62,0,102.932921208,4.081,105.3771,2.1952,2.08305088757,1.80078
2019-06-01T07:55:56Z,13.15998,4.828712,0.0,96.71066,0,1156,1.8032,6.524494,2.4108,43690,0.0,1009.421,0.0,1.98,1007.62,0,101.972990103,4.897,106.8972,1.9796,2.00713333333,1.80078
2019-06-01T08:10:59Z,13.15448,4.421829,0.0004824163,96.64291,0,1156,2.156,6.481564,2.1756,43690,0.03376914,1009.919,2.412082e-06,2.176,1008.118,0,107.383677479,4.761,105.2841,1.5876,1.56602839941,1.80078
2019-06-01T08:25:57Z,13.15448,4.04882,0.003859331,96.64291,0,1156,2.4108,6.373119,2.646,43690,0.2701532,1009.919,1.929666e-05,2.215,1008.118,0,102.310993499,4.083,93.84807,2.1756,2.0782999994,1.80078
2019-06-01T08:41:00Z,13.15448,5.269573,0.007719011,96.88028,0,1156,3.7632,6.307606,3.8612,43690,0.5403308,1009.919,3.859506e-05,3.822,1008.118,0,102.903238069,5.202,104.297,3.0968,2.95426508876,1.80078
2019-06-01T08:55:59Z,13.13791,5.303486,0.01833185,96.98201,0,1156,2.9008,6.67812,3.7632,43690,1.28323,1009.919,9.165925e-05,3.489,1008.118,0,104.292105452,5.507,103.5025,3.2144,3.16353333333,1.80078
2019-06-01T09:10:57Z,13.12687,5.81213,0.02942527,97.04982,0,1156,3.8808,7.071232,4.1356,43690,2.059769,1009.919,0.0001471264,4.136,1008.118,0,101.653320824,5.846,103.5748,3.626,3.55775,1.80078
2019-06-01T09:26:01Z,13.11737,6.070835,0.04630429,97.15895,0,1156,3.1556,7.444004,3.9984,43690,3.2413,1009.919,0.0002315214,3.371,1008.118,0,103.139364731,6.105,97.38472,3.2144,3.25325207101,1.80078
2019-06-01T09:40:59Z,13.1114,6.034,0.04244549,97.18666,0,1156,3.7632,7.773854,4.214,43690,2.971184,1009.919,0.0002122275,4.057,1008.118,0,104.519951291,6.17,105.8985,3.4692,3.45368333333,1.80078
2019-06-01T09:55:57Z,13.10034,5.932224,0.06415058,97.15258,0,1156,3.9984,8.081112,4.4296,43690,4.49054,1009.919,0.0003207529,3.979,1008.118,0,102.927059133,6.0,101.2773,3.6162,3.55833333333,1.80078
2019-06-01T10:10:57Z,13.10034,5.593239,0.0781383,97.22038,0,1156,3.5868,8.302525,4.4688,43690,5.469681,1011.048,0.0003906915,4.332,1009.248,0,101.280483288,5.729,100.6756,3.724,3.65656666667,1.80078
2019-06-01T10:25:58Z,13.10587,5.661038,0.1085206,97.32207,0,1156,4.2336,8.413227,4.7628,43690,7.596442,1011.048,0.000542603,4.155,1009.248,0,99.5245713491,5.695,103.275,3.92,3.86318333333,1.80078
2019-06-01T10:40:58Z,13.10587,5.762734,0.1225048,97.38987,0,1156,3.822,8.52393,4.5668,43690,8.575338,1011.048,0.0006125242,4.214,1009.248,0,104.290740079,5.831,106.0909,3.9102,3.84883333333,1.80078
2019-06-01T10:56:02Z,13.10034,5.932224,0.1818167,97.49157,0,1156,3.2732,8.700154,4.606,43690,12.72717,1011.048,0.0009090833,3.959,1009.248,0,104.86632663,5.966,113.0224,3.9984,3.88033609467,1.80078
2019-06-01T11:11:01Z,13.0893,6.271206,0.2657228,97.55937,0,1156,4.1944,8.944149,4.6844,43690,18.6006,1011.699,0.001328614,3.802,1009.898,0,104.749294468,6.271,105.8021,3.5672,3.49533333333,1.80078
2019-06-01T11:26:00Z,13.09482,6.101715,0.2382333,97.59326,0,1156,3.6456,9.258182,4.8216,43690,16.67633,1011.699,0.001191167,4.116,1009.898,0,106.07161381,6.17,117.4509,4.0474,3.90856666667,1.80078
2019-06-01T11:40:59Z,13.08925,6.43874,0.4802863,97.62304,0,1156,2.4892,9.615146,4.8608,43690,33.62004,1011.699,0.002401432,4.038,1009.898,0,103.45382377,6.676,114.8467,3.7044,3.66695,1.80078
2019-06-01T11:55:59Z,13.0652,7.043232,0.3611479,97.74689,0,1156,3.5476,10.31325,4.312,43690,25.28035,1011.699,0.001805739,3.998,1009.898,0,105.95543165,7.213,101.4534,3.6554,3.479,1.80078
2019-06-01T12:10:59Z,13.04638,7.340378,0.5766126,97.76449,0,1156,3.43,11.08366,4.312,43690,40.36288,1011.987,0.002883063,3.704,1010.186,0,101.044398411,7.34,103.241,3.4888,3.37563333333,1.80078
2019-06-01T12:26:04Z,13.02968,7.407677,0.673015,97.76351,0,1156,3.9396,12.00091,4.2532,43690,47.11105,1011.987,0.003365075,4.155,1010.186,0,103.770921031,7.475,113.6578,3.4104,3.33594319527,1.80078
2019-06-01T12:41:03Z,13.00432,7.904243,0.6931428,97.8412,0,1156,2.6068,12.78939,4.0376,43690,48.51999,1011.987,0.003465714,3.41,1010.186,0,102.970881677,8.139999,106.2936,3.4104,3.29828333333,1.80078
2019-06-01T12:56:03Z,12.98119,8.441959,0.7259068,97.79855,0,1156,2.3912,13.70665,3.6456,43690,50.81348,1011.987,0.003629534,2.666,1010.186,0,104.568871504,8.439999,89.64032,2.6166,2.64611666667,1.80078
2019-06-01T13:11:02Z,12.9701,8.78051,0.7509548,97.62877,0,1156,1.5092,14.58776,2.9988,43690,52.56684,1012.249,0.003754774,2.45,1010.448,0,104.752045032,8.92,117.2751,2.352,2.22821666548,1.80078
2019-06-01T13:26:00Z,12.95054,9.85191,0.7850523,97.12994,0,1156,0.882,15.38527,2.548,43690,54.95366,1012.249,0.003925261,1.137,1010.448,0,123.166322448,10.02,204.8669,1.274,1.29441665774,1.80078
2019-06-01T13:41:05Z,12.92162,9.847748,0.8292623,95.05613,0,1156,0.5096,16.41324,1.568,43690,58.04836,1012.249,0.004146312,1.235,1010.448,0,225.994975246,9.849999,198.6947,0.882,0.822968026036,1.80078
2019-06-01T13:56:02Z,12.9271,8.018986,0.8441961,91.50022,0,1156,4.1944,16.76116,4.7628,43690,59.09373,1012.249,0.004220981,4.332,1010.448,0,105.226764763,8.12,108.0749,3.7632,3.50748533333,1.80078
2019-06-01T14:11:02Z,12.93262,8.594673,0.873107,87.57201,0,1156,2.9204,16.53749,4.4492,43690,61.11748,1012.4,0.004365534,3.92,1010.6,0,106.14569376,8.929999,106.8246,3.5868,3.53441666667,1.80078
2019-06-01T14:26:01Z,12.93262,9.542862,0.891899,85.06608,0,1156,2.3912,16.33868,4.116,43690,62.43293,1012.4,0.004459495,3.352,1010.6,0,104.61303834,9.58,107.6421,3.3908,3.30726666667,1.80078
2019-06-01T14:41:02Z,12.93262,8.696266,0.9015359,85.16766,0,1156,4.2924,16.46293,4.4688,43690,63.10751,1012.4,0.00450768,4.175,1010.6,0,104.438949543,8.87,100.1165,3.4888,3.36023333333,1.80078
2019-06-01T14:56:03Z,12.93262,10.89742,0.9159913,78.76739,0,1156,1.9208,16.38838,4.4688,43690,64.11939,1012.4,0.004579957,2.293,1010.6,0,104.811683116,10.97,105.1656,2.6264,2.72486666667,1.80078
2019-06-01T15:11:02Z,12.91056,11.64242,0.9347582,70.84325,0,1156,1.2152,17.18589,2.1168,43690,65.43307,1012.482,0.004673791,1.803,1010.681,0,206.428123958,11.98,212.3509,1.274,1.2261666631,1.80078
2019-06-01T15:26:05Z,12.89023,11.38986,0.9558314,71.90518,0,1156,1.8032,17.945,3.6848,43690,66.9082,1012.482,0.004779157,3.685,1010.681,0,221.580440562,11.39,229.9774,1.7346,1.78476666369,1.80078
2019-06-01T15:41:07Z,12.88414,12.57283,0.9648366,67.70487,0,1156,1.8816,18.53241,2.8028,43690,67.53856,1012.482,0.004824183,2.352,1010.681,0,266.71015901,12.98,265.7094,1.3916,1.45411123964,1.80078
2019-06-01T15:56:05Z,12.88413,12.30197,0.9431386,72.20719,0,1156,2.2736,18.921,2.8812,43690,66.01971,1012.482,0.004715693,2.45,1010.681,0,284.104143934,12.23,259.5322,1.9404,1.90598333274,1.80078
2019-06-01T16:11:05Z,12.88413,12.13271,0.9898618,71.25932,0,1156,3.822,19.23278,3.6064,43690,69.29033,1011.984,0.004949309,3.606,1010.183,0,284.329656223,12.23,286.5718,2.2932,2.27638343018,1.80078
2019-06-01T16:26:04Z,12.88413,12.30197,0.9874534,71.05621,0,1156,4.4296,19.28474,4.9,43690,69.12174,1011.984,0.004937267,4.802,1010.183,0,282.690302265,12.44,284.5288,3.4888,3.49941666667,1.80078
2019-06-01T16:41:08Z,12.88413,12.40353,0.9980505,71.25932,0,1156,2.2932,19.10174,4.6648,43690,69.86354,1011.984,0.004990252,3.312,1010.183,0,290.027188175,12.44,296.3301,3.1752,3.21776331361,1.80078
2019-06-01T16:56:07Z,12.87862,13.52066,0.9720396,65.67368,0,1156,2.9988,19.20793,3.9984,43690,68.04277,1011.984,0.004860198,3.293,1010.183,0,275.671859255,13.79,269.0982,3.038,2.9687,1.80078
2019-06-01T17:11:05Z,12.86759,13.52066,0.9566257,66.04605,0,1156,3.822,19.62589,6.6444,43690,66.9638,1012.227,0.004783128,4.547,1010.427,0,264.483053473,13.66,268.7377,4.1356,4.16103333333,1.80078
2019-06-01T17:26:05Z,12.86099,12.90881,0.9431385,67.12614,0,1156,2.9792,20.04837,4.4884,43690,66.01969,1012.227,0.004715692,3.94,1010.427,0,277.34247473,12.94,275.142,3.0772,3.0506,1.80078
2019-06-01T17:41:07Z,12.86,13.74981,0.9267612,61.60243,0,1156,4.4296,20.34207,6.8208,43690,64.87328,1012.227,0.004633806,5.664,1010.427,0,269.476454093,13.99,273.5771,3.4496,3.53733333333,1.80078
2019-06-01T17:56:10Z,12.8481,14.59358,0.8872474,61.87046,0,1156,3.038,20.68999,5.88,43690,62.10732,1012.227,0.004436237,4.469,1010.427,0,279.064176029,14.73,273.1804,4.116,4.16273846154,1.80078
2019-06-01T18:11:06Z,12.83572,14.82355,0.8712213,60.3059,0,1156,3.5672,21.06955,4.4296,43690,60.98548,1011.862,0.004356106,3.744,1010.061,0,268.744627281,15.03,262.9581,3.2046,3.20786666667,1.80078
2019-06-01T18:26:07Z,12.8467,13.97635,0.8431492,63.9256,0,1156,3.2536,21.23221,4.41,43690,59.02044,1011.862,0.004215746,4.41,1010.061,0,284.550201385,13.84,274.5816,3.2046,3.19643333333,1.80078
2019-06-01T18:41:09Z,12.84119,14.72084,0.7978822,59.42473,0,1156,3.0184,21.28643,5.0568,43690,55.85176,1011.862,0.003989411,4.292,1010.061,0,285.4790975,14.72,309.3487,3.6848,3.65081893491,1.80078
2019-06-01T18:56:10Z,12.84119,15.0254,0.7675463,57.86804,0,1156,3.6064,21.34066,5.2724,43690,53.72824,1011.862,0.003837732,4.077,1010.061,0,286.89430078,15.06,299.7619,3.626,3.65395029586,1.80078
2019-06-01T19:11:09Z,12.84119,14.82236,0.7463594,59.28936,0,1156,3.1556,21.23221,5.3704,43690,52.24516,1011.73,0.003731797,4.332,1009.929,0,290.543592734,14.89,299.4735,3.8514,3.82713333333,1.80078
2019-06-01T19:26:12Z,12.8467,15.76991,0.738655,53.3672,0,1156,3.0772,21.23221,5.5076,43690,51.70585,1011.73,0.003693275,4.096,1009.929,0,281.417415392,15.97,274.5575,3.6064,3.65766153846,1.80078
2019-06-01T19:41:11Z,12.8467,15.16077,0.6986887,49.54317,0,1156,3.9004,21.39714,4.6844,43690,48.90821,1011.73,0.003493443,4.39,1009.929,0,285.334907634,15.47,292.8421,3.381,3.35043333333,1.80078
2019-06-01T19:56:08Z,12.8467,14.78852,0.6360908,51.87819,0,1156,3.1752,21.34066,4.8608,43690,44.52636,1011.73,0.003180454,3.41,1009.929,0,286.035790176,14.82,283.5196,3.822,3.76891666667,1.80078
2019-06-01T20:11:08Z,12.84119,16.5144,0.5547136,45.92218,0,1156,2.842,21.23221,3.6456,43690,38.82995,1012.38,0.002773568,3.548,1010.579,0,283.977968106,16.58,269.0793,2.8224,2.75531666667,1.80078
2019-06-01T20:26:08Z,12.84119,17.12354,0.5325636,44.46702,0,1156,4.1748,21.34066,4.3316,43690,37.27945,1012.38,0.002662818,4.332,1010.579,0,290.539897778,17.26,290.6075,2.891,2.91386666667,1.80078
2019-06-01T20:41:08Z,12.8467,14.99156,0.4598537,48.76483,0,1156,2.9596,21.45136,4.508,43690,32.18976,1012.38,0.002299268,2.764,1010.579,0,274.934813143,15.43,307.5707,2.8028,2.89461666607,1.80078
2019-06-01T20:56:09Z,12.8467,15.16077,0.422295,51.3029,0,1156,3.6064,21.25933,3.9396,43690,29.56065,1012.38,0.002111475,3.548,1010.579,0,288.252647621,15.23,291.929,2.9792,2.96963333333,1.80078
2019-06-01T21:11:10Z,12.85773,14.51779,0.3891046,49.64469,0,1156,3.3712,20.77133,4.5472,43690,27.23732,1012.461,0.001945523,4.547,1010.66,0,284.452227597,14.79,282.1981,3.1654,3.2186,1.80078
2019-06-01T21:26:09Z,12.85967,14.93211,0.3251309,47.21521,0,1156,3.626,20.23588,4.2924,43690,22.75916,1012.461,0.001625655,3.92,1010.66,0,286.84879518,15.03,289.5217,3.3712,3.31485,1.80078
2019-06-01T21:41:10Z,12.86668,14.86832,0.2312084,47.89554,0,1156,2.4304,20.04837,3.626,43690,16.18459,1012.461,0.001156042,3.214,1010.66,0,294.24472948,14.83,300.8855,2.5872,2.59268333333,1.80078
2019-06-01T21:56:11Z,12.87274,14.26433,0.1420969,48.78035,0,1156,2.6068,19.67785,3.7044,43690,9.94678,1012.461,0.0007104842,2.744,1010.66,0,292.914017068,14.3,285.6528,2.3912,2.33916666667,1.80078
2019-06-01T22:11:11Z,12.87858,13.92679,0.1237929,49.55983,0,1156,2.4108,19.04978,3.626,43690,8.665501,1011.971,0.0006189643,2.94,1010.17,0,302.037913572,14.06,304.4534,1.911,1.95929999762,1.80078
2019-06-01T22:26:11Z,12.88413,13.62219,0.1035621,51.99728,0,1156,2.0776,18.50756,3.7632,43690,7.249349,1011.971,0.0005178106,3.195,1010.17,0,284.899343358,13.69,261.8875,2.5284,2.57355,1.80078
2019-06-01T22:41:11Z,12.89515,13.11441,0.09874528,52.53892,0,1156,1.0192,18.04667,2.7048,43690,6.91217,1011.971,0.0004937264,1.764,1010.17,0,265.361898431,13.25,280.8273,1.8326,1.81673333333,1.80078
2019-06-01T22:56:11Z,12.90066,13.14826,0.07226149,51.72646,0,1156,0.9799999,17.56319,1.274,43690,5.058304,1011.971,0.0003613074,0.8430001,1010.17,0,267.07561896,13.28,250.0862,0.8231999,0.806283314286,1.80078
2019-06-01T23:11:12Z,12.90089,13.21831,0.05492307,51.45791,0,1156,0.2744,17.2356,2.3912,43690,3.844615,1012.958,0.0002746153,0.9210001,1011.158,0,196.800770998,13.29,187.2905,0.6076,0.729516658929,1.80078
2019-06-01T23:26:13Z,12.90887,13.70012,0.02938853,53.59854,0,1156,0.0,16.95997,1.8816,43690,2.057197,1012.958,0.0001469427,0.196,1011.158,0,218.197300908,13.73,237.2245,0.4312,0.500849990476,1.80078
2019-06-01T23:41:14Z,12.92147,13.36857,0.01300934,53.26698,0,1156,0.0,16.6866,1.666,43690,0.9106536,1012.958,6.504668e-05,0.7640001,1011.158,0,237.70328721,13.44,319.4826,0.3332,0.424199992262,1.80078
2019-06-01T23:56:14Z,12.93261,12.38739,0.002891078,60.37926,0,1156,0.0,16.16697,0.784,43690,0.2023755,1012.958,1.445539e-05,0.0,1011.158,0,71.318731142,12.46,74.14966,0.0,0.170566666667,1.80078
2019-06-02T00:11:16Z,12.94916,11.81172,0.0009636938,65.62817,0,1156,0.294,15.55471,1.3916,43690,0.06745856,1013.294,4.818469e-06,0.431,1011.493,0,286.88931772,11.85,183.5709,0.49,0.496230460265,1.80078
2019-06-02T00:26:14Z,12.96019,11.06672,0.0,71.24958,0,1156,0.8428,15.02153,0.9604,43690,0.0,1013.294,0.0,0.96,1011.493,0,278.202795187,11.07,328.3359,0.0,0.185111109259,1.80078
2019-06-02T00:41:15Z,12.97273,12.12211,0.0,62.62104,0,1156,1.5484,14.58776,2.352,43690,0.0,1013.294,0.0,2.097,1011.493,0,326.084794201,12.12,287.3971,1.323,1.30888332679,1.80078
2019-06-02T00:56:14Z,12.98629,11.59103,0.0,66.69911,0,1156,0.0,14.1811,1.5484,43690,0.0,1013.294,0.0,0.0,1011.493,0,329.320021889,11.79,335.5592,0.3528,0.352916664881,1.80078
2019-06-02T01:11:14Z,12.99215,10.3726,0.0,70.76554,0,1156,0.9995999,13.72924,0.9799999,43690,0.0,1013.626,0.0,0.8430001,1011.825,0,183.37431487,10.47,111.0216,0.0,0.143149995238,1.80078
2019-06-02T01:26:15Z,12.99767,9.966106,0.0,72.52708,0,1156,1.3328,13.3045,1.9404,43690,0.0,1013.626,0.0,1.294,1011.825,0,113.140103082,10.34,85.19034,1.0486,0.915483327976,1.80078
2019-06-02T01:41:16Z,13.00871,10.33874,0.0,70.52843,0,1156,0.9799999,12.95432,1.9012,43690,0.0,1013.626,0.0,1.117,1011.825,0,98.3977975549,10.68,99.69339,1.3622,1.33326665655,1.80078
2019-06-02T01:56:17Z,13.01422,9.932232,0.0,73.23846,0,1156,0.5096,12.62673,0.9995999,43690,0.0,1013.626,0.0,0.6860001,1011.825,0,123.158530007,9.929999,134.8807,0.6174,0.459316655952,1.80078
2019-06-02T02:11:17Z,13.01476,10.07035,0.0,70.59987,0,1156,3.038,12.46406,3.9592,43690,0.0,1013.955,0.0,3.606,1012.154,0,110.681377377,10.21,114.4189,2.9988,2.71833333274,1.80078
2019-06-02T02:26:18Z,13.01546,9.631546,0.0,73.85446,0,1156,2.3912,12.39402,3.6652,43690,0.0,1013.955,0.0,2.646,1012.154,0,107.934181697,9.769999,99.58156,2.646,2.70526666667,1.80078
2019-06-02T02:41:18Z,13.01522,8.918075,0.0,76.86642,0,1156,1.666,12.16358,2.842,43690,0.0,1013.955,0.0,1.548,1012.154,0,102.197708553,9.16,101.4054,1.96,1.88043333333,1.80078
2019-06-02T02:56:19Z,13.02645,8.683578,0.0,77.85307,0,1156,1.4308,11.81791,2.1168,43690,0.0,1013.955,0.0,1.411,1012.154,0,99.7698385485,8.849999,89.98534,1.8228,1.73518333333,1.80078
2019-06-02T03:11:19Z,13.03488,8.762326,0.0,75.05806,0,1156,1.274,11.51744,2.9792,43690,0.0,1014.208,0.0,2.293,1012.407,0,102.024161788,8.83,154.4844,1.6268,1.67708333274,1.80078
2019-06-02T03:26:18Z,13.04071,8.729225,0.0,77.22802,0,1156,0.7252,11.26666,1.7836,43690,0.0,1014.208,0.0,0.9210001,1012.407,0,50.2791790374,8.8,54.27853,0.5684,0.527333325,1.80078
2019-06-02T03:41:18Z,13.04071,9.203659,0.0,75.16096,0,1156,1.2936,11.08366,2.548,43690,0.0,1014.208,0.0,1.47,1012.407,0,88.114532319,9.17,121.5012,1.029,1.1353999869,1.80078
2019-06-02T03:56:18Z,13.02968,10.18638,0.0,74.07658,0,1156,2.6852,11.19888,4.1552,43690,0.0,1014.208,0.0,3.489,1012.407,0,111.867297724,10.19,101.2911,2.5382,2.47216666607,1.80078
2019-06-02T04:11:18Z,13.01312,10.83022,0.0,72.7211,0,1156,4.2336,11.74788,5.9388,43690,0.0,1014.129,0.0,5.566,1012.328,0,112.424318579,10.8,113.2247,3.3712,3.45496666667,1.80078
2019-06-02T04:26:17Z,13.00497,10.24321,0.0,77.34675,0,1156,4.6452,12.3014,6.5464,43690,0.0,1014.129,0.0,5.233,1012.328,0,120.190363828,10.31,132.7081,4.3904,4.33755,1.80078
2019-06-02T04:41:22Z,12.99859,10.03568,0.0,79.71154,0,1156,4.6648,12.60414,6.3308,43690,0.0,1014.129,0.0,5.37,1012.328,0,118.203111464,10.1,93.61177,4.214,4.16749349112,1.80078
2019-06-02T04:56:20Z,13.00358,9.593868,0.0,82.65645,0,1156,4.5668,12.65158,5.8996,43690,0.0,1014.129,0.0,5.508,1012.328,0,113.396565774,9.63,132.4766,4.2238,4.18156666667,1.80078
2019-06-02T05:11:19Z,13.00368,9.154702,0.0,85.47023,0,1156,2.8028,12.44147,5.7036,43690,0.0,1014.044,0.0,5.253,1012.243,0,116.146551074,9.22,103.1361,3.8416,3.84766666667,1.80078
2019-06-02T05:26:18Z,13.01533,9.29026,0.0,85.91072,0,1156,5.6644,12.14099,6.2916,43690,0.0,1014.044,0.0,5.958,1012.243,0,110.081897663,9.36,99.09544,3.9298,3.94718333333,1.80078
2019-06-02T05:41:24Z,13.01454,9.629543,0.0,84.45492,0,1156,4.5668,12.16358,6.5464,43690,0.0,1014.044,0.0,5.645,1012.243,0,106.43516923,9.76,152.1323,4.3708,4.38123786982,1.80078
2019-06-02T05:56:22Z,13.00343,9.326095,0.0,86.18516,0,1156,5.096,12.32624,5.8212,43690,0.0,1014.044,0.0,5.468,1012.243,0,116.566766871,9.389999,132.2688,4.0964,3.94006666667,1.80078
2019-06-02T06:11:20Z,13.00403,9.39238,0.0,86.58911,0,1156,2.6852,12.37143,5.3704,43690,0.0,1013.416,0.0,4.626,1011.615,0,116.765128954,9.559999,131.0863,2.9596,3.01116666667,1.80078
2019-06-02T06:26:24Z,13.00377,9.496231,0.0,87.13505,0,1156,4.5276,12.41887,6.3308,43690,0.0,1013.416,0.0,5.743,1011.615,0,114.838702386,9.53,115.7941,3.8416,3.8438035503,1.80078
2019-06-02T06:41:22Z,13.00404,9.359261,0.0,88.1488,0,1156,2.3324,12.37143,6.5856,43690,0.0,1013.416,0.0,4.175,1011.615,0,114.201716955,9.33,118.5327,4.018,4.05498333333,1.80078
2019-06-02T06:56:26Z,13.01532,9.1889,0.0,89.33274,0,1156,3.5476,12.25621,6.3504,43690,0.0,1013.416,0.0,4.528,1011.615,0,117.002818928,9.32,108.8853,3.5672,3.56000946746,1.80078
2019-06-02T07:11:25Z,13.00918,9.495178,0.0,89.43687,0,1156,3.7436,12.3014,5.3312,43690,0.0,1013.394,0.0,4.312,1011.593,0,117.33526006,9.63,135.2025,3.332,3.33106666667,1.80078
2019-06-02T07:26:23Z,13.00384,9.629963,0.0,90.31637,0,1156,2.744,12.46406,6.86,43690,0.0,1013.394,0.0,6.507,1011.593,0,114.203987522,9.7,80.81722,3.8612,3.86749999405,1.80078